Station 42059 - Eastern Caribbean Sea - 180 NM SSW of Ponce, PR Image indicating link to RSS feed of recent meteorological observations for station 42059


Conditions at 42059 as of
(3:10 am AST)
0710 GMT on 04/14/2024:
     

Click on the graph icon in the table below to see a time series plot of the last five days of that observation.

5-day plot - Wind Direction Wind Direction (WDIR):ENE ( 70 deg true )
5-day plot - Wind Speed Wind Speed (WSPD): 13.6 kts
5-day plot - Wind Gust Wind Gust (GST): 15.5 kts
5-day plot - Atmospheric Pressure Atmospheric Pressure (PRES):29.88 in
5-day plot - Air Temperature Air Temperature (ATMP): 81.9 °F
5-day plot - Dew Point Dew Point (DEWP): 75.6 °F
5-day plot - Heat Index Heat Index (HEAT): 88.7 °F
5-day plot - Wind Speed at 10 Meters Wind Speed at 10 meters (WSPD10M): 15.5 kts
5-day plot - Wind Speed at 20 Meters Wind Speed at 20 meters (WSPD20M): 15.5 kts
5-day plot -  Wind Speed, Wind Gust and Atmospheric Pressure Combined plot of Wind Speed, Gust, and Air Pressure
Supplemental Measurements
Highest 1-minute Wind Speed
Time (AST)5-day plot - 1-Minute Wind Speed WSPD 5-day plot - 1-Minute Wind Direction WDIR
3:02 am 15.5 kts-
Previous observations
TIME
(AST)
5-day plot - Wind Direction
WDIR
 
5-day plot - Wind Speed
WSPD
kts
5-day plot - Wind Gust
GST
kts
5-day plot - Wave Height
WVHT
ft
5-day plot - Dominant Wave Period
DPD
sec
5-day plot - Average Wave Period
APD
sec
5-day plot - Mean Wave Direction
MWD
 
5-day plot - Atmospheric Pressure
PRES
in
5-day plot - Pressure Tendency
PTDY
in
5-day plot - Air Temperature
ATMP
°F
5-day plot - Water Temperature
WTMP
°F
5-day plot - Dew Point
DEWP
°F
5-day plot - Salinity
SAL
psu
5-day plot - Visibility
VIS
nmi
5-day plot - Tide (above MLLW)
TIDE
ft
2024-04-14 03:00 amENE 13.6 15.5----29.88-0.06 81.9- 75.6---
2024-04-14 02:50 amENE 13.6 15.5 5.2 75.0ENE29.89- 81.7- 76.1---
2024-04-14 02:40 am E 13.6 15.5----29.89- 81.7- 76.3---
2024-04-14 02:30 amENE 13.6 17.5----29.89- 81.9- 76.3---
2024-04-14 02:20 amENE 13.6 17.5 4.9 74.9 E29.89- 82.0- 76.1---
2024-04-14 02:10 amENE 15.5 17.5 4.9-4.9 E29.90- 82.0- 75.7---
2024-04-14 02:00 amENE 15.5 19.4----29.90-0.06 82.2- 76.3---
2024-04-14 01:50 amENE 15.5 19.4 5.2 85.1ENE29.91- 82.2- 76.1---
2024-04-14 01:40 amENE 15.5 19.4----29.91- 82.2- 75.7---
2024-04-14 01:30 amENE 15.5 19.4----29.91- 82.0- 75.9---
2024-04-14 01:20 amENE 15.5 19.4 5.2 75.1 E29.91- 82.0- 76.1---
2024-04-14 01:10 amENE 15.5 19.4 5.2-5.1 E29.92- 82.0- 76.5---
2024-04-14 01:00 amENE 15.5 19.4----29.92-0.04 82.2- 76.5---
2024-04-14 12:50 amENE 15.5 19.4 5.2 85.0 E29.93- 82.0- 76.5---
2024-04-14 12:40 amENE 15.5 19.4----29.93- 82.2- 76.8---
2024-04-14 12:30 amENE 15.5 19.4----29.93- 82.2- 76.8---
2024-04-14 12:20 amENE 15.5 19.4 5.2 85.2 E29.93- 82.2- 76.6---
2024-04-14 12:10 amENE 15.5 19.4 5.2-5.2 E29.94- 82.2- 77.0---
2024-04-14 12:00 amENE 15.5 19.4----29.94-0.01 82.2- 77.0---
2024-04-13 11:50 pmENE 15.5 19.4 5.2 85.0 E29.95- 82.2- 76.8---
2024-04-13 11:40 pm E 15.5 19.4----29.95- 82.4- 76.8---
2024-04-13 11:30 pm E 15.5 19.4----29.95- 82.4- 76.6---
2024-04-13 11:20 pm E 15.5 19.4 5.6 85.1 E29.96- 82.4- 76.5---
2024-04-13 11:10 pm E 15.5 21.4 5.6-5.1 E29.96- 82.4- 76.6---
2024-04-13 11:00 pm E 15.5 19.4----29.96+0.03 82.4- 76.6---
2024-04-13 10:50 pm E 15.5 19.4 5.6 85.2 E29.96- 82.4- 76.5---
2024-04-13 10:40 pm E 15.5 19.4----29.97- 82.4- 76.6---
2024-04-13 10:30 pmENE 15.5 19.4----29.97- 82.4- 77.0---
2024-04-13 10:20 pmENE 17.5 19.4 5.9 85.3 E29.97- 82.4- 76.5---
2024-04-13 10:10 pm E 17.5 21.4 5.9-5.3 E29.97- 82.6- 76.5---
2024-04-13 10:00 pm E 15.5 19.4----29.97+0.04 82.6- 76.8---
2024-04-13 09:50 pm E 15.5 19.4 5.6 85.0ENE29.96- 82.6- 76.6---
2024-04-13 09:40 pm E 17.5 19.4 5.6-5.0ENE29.96- 82.6- 76.5---
2024-04-13 09:30 pm E 15.5 19.4----29.96- 82.6- 76.6---
2024-04-13 09:20 pm E 15.5 19.4 5.9 85.3ENE29.96- 82.8- 76.5---
2024-04-13 09:10 pm E 17.5 21.4 5.9-5.3ENE29.96- 82.8- 76.3---
2024-04-13 09:00 pm E 15.5 19.4----29.95+0.03 82.6- 76.6---
2024-04-13 08:50 pm E 17.5 21.4 6.6 85.3 E29.95- 82.8- 76.6---
2024-04-13 08:40 pm E 17.5 21.4----29.95- 82.8- 76.3---
2024-04-13 08:30 pm E 17.5 21.4----29.94- 82.8- 76.5---
2024-04-13 08:20 pmENE 17.5 21.4 5.9 85.2ENE29.94- 82.8- 76.8---
2024-04-13 08:10 pm E 17.5 21.4 5.9-5.2ENE29.94- 82.8- 76.6---
2024-04-13 08:00 pm E 17.5 21.4----29.94+0.01 82.6- 76.8---
2024-04-13 07:50 pmENE 17.5 21.4 6.6 85.4ENE29.94- 82.8- 76.8---
2024-04-13 07:40 pmENE 17.5 21.4----29.93- 82.8- 77.0---
2024-04-13 07:20 pm E 17.5 21.4 6.2 85.3ENE29.93- 82.8- 76.8---
2024-04-13 07:10 pm E 17.5 23.3 6.2-5.3ENE29.93- 82.8- 76.8---
2024-04-13 07:00 pmENE 17.5 21.4----29.93+0.00 82.8- 77.2---
2024-04-13 06:50 pmENE 17.5 21.4 6.6 85.5ENE29.93- 82.8- 77.5---
2024-04-13 06:40 pmENE 17.5 21.4----29.93- 82.8- 77.4---
2024-04-13 06:30 pm E 17.5 21.4----29.93- 82.9- 77.4---
2024-04-13 06:20 pm E 17.5 21.4 6.6 85.3ENE29.93- 82.9- 77.4---
2024-04-13 06:10 pm E 17.5 21.4 6.6-5.3ENE29.93- 82.9- 77.5---
2024-04-13 06:00 pm E 17.5 21.4----29.93-0.01 82.9- 77.7---
2024-04-13 05:50 pm E 15.5 19.4 6.9 85.5ENE29.93- 82.9- 77.7---
2024-04-13 05:40 pm E 15.5 19.4----29.92- 83.1- 78.1---
2024-04-13 05:30 pm E 15.5 19.4----29.92- 83.1- 77.4---
2024-04-13 05:20 pm E 15.5 19.4 6.6 75.5 E29.92- 83.3- 77.2---
2024-04-13 05:10 pm E 15.5 19.4 6.6-5.5 E29.93- 83.3- 77.2---
2024-04-13 05:00 pm E 17.5 21.4----29.92-0.03 83.3- 76.5---
2024-04-13 04:50 pm E 15.5 19.4 6.6 75.5 E29.93- 83.3- 76.8---
2024-04-13 04:40 pm E 17.5 19.4----29.93- 83.3- 76.5---
2024-04-13 04:30 pm E 15.5 19.4----29.93- 83.3- 77.0---
2024-04-13 04:20 pm E 17.5 21.4 6.6 85.4ENE29.93- 83.5- 76.5---
2024-04-13 04:10 pm E 17.5 19.4 6.6-5.4ENE29.93- 83.3- 76.5---
2024-04-13 04:00 pm E 15.5 19.4----29.93-0.05 83.3- 77.0---
2024-04-13 03:50 pm E 17.5 21.4 6.9 85.5ENE29.93- 83.3- 76.5---
2024-04-13 03:40 pm E 17.5 21.4----29.93- 83.3- 76.6---
2024-04-13 03:30 pm E 17.5 21.4----29.93- 83.3- 76.8---
2024-04-13 03:20 pm E 17.5 21.4 6.9 75.5ENE29.93- 83.3- 77.2---
2024-04-13 03:10 pm E 17.5 21.4 6.9-5.5ENE29.94- 83.3- 76.6---
2024-04-13 03:00 pm E 17.5 21.4----29.94-0.06 83.3- 76.6---
2024-04-13 02:50 pm E 17.5 21.4 6.6 85.4ENE29.94- 83.3- 77.2---
2024-04-13 02:40 pm E 17.5 21.4----29.94- 83.3- 77.0---
2024-04-13 02:30 pm E 17.5 23.3----29.95- 83.3- 77.0---
2024-04-13 02:20 pm E 17.5 21.4 6.9 85.4ENE29.95- 83.3- 77.4---
2024-04-13 02:10 pm E 17.5 21.4----29.95- 83.3- 77.5---
2024-04-13 02:00 pm E 17.5 21.4----29.95-0.05 83.3- 77.5---
2024-04-13 01:50 pm E 17.5 21.4 6.9 95.5ENE29.96- 83.3- 77.2---
2024-04-13 01:40 pm E 17.5 21.4----29.96- 83.3- 77.2---
2024-04-13 01:30 pm E 17.5 23.3----29.96- 83.3- 77.4---
2024-04-13 01:20 pm E 17.5 21.4 6.6 85.3ENE29.97- 83.3- 77.7---
2024-04-13 01:10 pm E 17.5 21.4----29.97- 83.3- 77.4---
2024-04-13 01:00 pm E 17.5 21.4----29.98-0.03 83.3- 77.5---
2024-04-13 12:50 pm E 17.5 23.3 6.2 85.0ENE29.98- 83.3- 77.2---
2024-04-13 12:40 pm E 17.5 23.3----29.98- 83.3- 77.4---
2024-04-13 12:30 pm E 19.4 23.3----29.99- 83.3- 77.0---
2024-04-13 12:20 pm E 19.4 25.3 6.6 85.1ENE29.99- 83.3- 77.0---
2024-04-13 12:10 pm E 19.4 23.3 6.6-5.1ENE29.99- 83.3- 77.2---
2024-04-13 12:00 pm E 19.4 23.3----29.99+0.00 83.3- 77.5---
2024-04-13 11:50 am E 19.4 23.3 5.9 65.0 E30.00- 83.3- 77.2---
2024-04-13 11:40 am E 19.4 23.3----30.00- 83.3- 77.2---
2024-04-13 11:30 am E 19.4 25.3----30.00- 83.3- 77.5---
2024-04-13 11:20 am E 19.4 23.3 6.6 65.2 E30.00- 83.3- 77.5---
2024-04-13 11:10 am E 19.4 23.3 6.6-5.2 E30.00- 83.1- 77.5---
2024-04-13 11:00 am E 19.4 23.3----30.00+0.01 83.3- 77.7---
2024-04-13 10:50 am E 19.4 23.3 6.2 65.1 E30.00- 83.3- 77.7---
2024-04-13 10:40 am E 19.4 23.3----30.01- 83.1- 77.9---
2024-04-13 10:30 am E 19.4 23.3----30.01- 83.1- 77.7---
2024-04-13 10:20 am E 17.5 23.3 5.6 64.9ENE30.00- 83.3- 77.9---
2024-04-13 10:10 am E 19.4 23.3----30.00- 83.1- 77.9---
2024-04-13 10:00 am E 15.5 25.3----30.00+0.04 82.2- 78.4---
2024-04-13 09:50 amESE 15.5 19.4 5.6 54.8 E30.00- 81.7- 78.3---
2024-04-13 09:40 amESE 17.5 25.3 5.6-4.8 E30.00- 81.7- 77.2---
2024-04-13 09:30 am E 19.4 25.3----30.00- 82.4- 77.9---
2024-04-13 09:20 am E 17.5 21.4 5.6 54.9 E30.00- 83.1- 77.9---
2024-04-13 09:10 am E 17.5 21.4----30.00- 82.9- 77.9---
2024-04-13 09:00 am E 17.5 21.4----30.00+0.04 82.9- 78.1---
2024-04-13 08:50 am E 17.5 21.4 5.2 64.8ENE30.00- 82.9- 78.3---
2024-04-13 08:40 am E 17.5 23.3----30.00- 82.8- 78.1---
2024-04-13 08:30 am E 17.5 23.3----29.99- 82.8- 77.9---
2024-04-13 08:20 am E 19.4 21.4 5.2 64.9 E29.99- 82.8- 77.9---
2024-04-13 08:10 am E 19.4 23.3 5.2-4.9 E29.99- 82.6- 77.9---
2024-04-13 08:00 am E 17.5 21.4----29.98+0.04 82.2- 77.9---
2024-04-13 07:50 am E 15.5 19.4 5.2 65.0 E29.98- 81.9- 77.5---
2024-04-13 07:40 am E 15.5 19.4----29.98- 80.8- 76.3---
2024-04-13 07:30 am E 17.5 21.4----29.98- 80.8- 76.1---
2024-04-13 07:20 amESE 19.4 23.3 5.2 64.9 E29.98- 81.7- 77.0---
2024-04-13 07:10 amESE 17.5 21.4 5.2-4.9 E29.97- 82.0- 77.5---
2024-04-13 07:00 am E 17.5 21.4----29.97+0.02 82.0- 77.4---
2024-04-13 06:50 am E 17.5 21.4 5.2 54.9ENE29.96- 82.0- 77.2---
2024-04-13 06:40 am E 17.5 21.4----29.96- 81.9- 77.2---
2024-04-13 06:30 am E 15.5 19.4----29.96- 81.5- 76.8---
2024-04-13 06:20 am E 15.5 19.4 5.6 64.9 E29.96- 80.6- 75.9---
2024-04-13 06:10 amESE 15.5 21.4 5.6-4.9 E29.96- 79.2- 75.0---
2024-04-13 06:00 amESE 19.4 31.1----29.96+0.02 79.7- 75.9---
2024-04-13 05:50 am E 17.5 21.4 5.2 64.8 E29.96- 82.0- 77.2---
2024-04-13 05:40 am E 15.5 19.4----29.95- 81.9- 76.6---
2024-04-13 05:30 am E 15.5 19.4----29.95- 81.9- 76.6---
2024-04-13 05:20 am E 17.5 21.4 5.2 64.8 E29.95- 81.7- 76.6---
2024-04-13 05:10 am E 17.5 21.4 5.2-4.8 E29.95- 81.5- 76.8---
2024-04-13 05:00 am E 17.5 21.4----29.95-0.01 82.2- 77.4---
2024-04-13 04:50 am E 15.5 17.5 5.2 74.9ENE29.95- 82.4- 76.6---
2024-04-13 04:40 am E 15.5 19.4 5.2-4.9ENE29.95- 82.4- 77.2---
2024-04-13 04:30 am E 15.5 19.4----29.94- 82.4- 77.9---
2024-04-13 04:20 am E 15.5 19.4 4.9 74.9ENE29.94- 82.4- 77.4---
2024-04-13 04:10 am E 15.5 17.5 4.9-4.9ENE29.94- 82.4- 77.5---
2024-04-13 04:00 am E 15.5 19.4----29.94-0.04 82.6- 77.4---
2024-04-13 03:50 am E 15.5 19.4 5.2 65.1ENE29.94- 82.4- 76.8---
2024-04-13 03:40 am E 13.6 15.5 5.2-5.1ENE29.94- 81.7- 77.4---
2024-04-13 03:30 am E 13.6 17.5----29.94- 81.3- 77.4---
2024-04-13 03:20 am E 15.5 19.4 5.6-4.9ENE29.94-------
2024-04-13 03:10 am E 17.5 19.4 5.6-4.9ENE29.95- 81.5- 77.7---
2024-04-13 03:00 am E 17.5 21.4----29.94-0.04 81.9- 78.1---
2024-04-13 02:50 am E 17.5 21.4 5.2 84.9ENE29.95- 82.4- 77.9---

Detailed Wave Summary
for 42059 as of (2:40 am AST)
0640 GMT on 04/14/2024:

These wave data are displayed in rounded times.

     

Click on the graph icon in the table below to see a time series plot of the last five days of that observation.

5-day plot - Significant Wave Height Significant Wave Height (WVHT): 5.2 ft
5-day plot - Swell Height Swell Height (SwH): 3.6 ft
5-day plot - Swell Period Swell Period (SwP): 7.1 sec
5-day plot - Swell Direction Swell Direction (SwD):ENE
5-day plot - Wind Wave Height Wind Wave Height (WWH): 3.6 ft
5-day plot - Wind Wave Period Wind Wave Period (WWP): 5.6 sec
5-day plot - Wind Wave Direction Wind Wave Direction (WWD): E
5-day plot - Wave Steepness Wave Steepness (STEEPNESS): STEEP
5-day plot - Average Wave Period Average Wave Period (APD): 5.0 sec
Previous observations
TIME
(AST)
5-day plot - Wave Height
WVHT
ft
5-day plot - Swell Height
SwH
ft
5-day plot - Swell Period
SwP
sec
5-day plot - Swell Direction
SwD
 
5-day plot - Wind Wave Height
WWH
ft
5-day plot - Wind Wave Period
WWP
sec
5-day plot - Wind Wave Direction
WWD
 
5-day plot - Wave Steepness
STEEPNESS
 
5-day plot - Average Wave Period
APD
sec
2024-04-14 02:10 am 4.9 2.3 9.1ENE 4.3 7.1 E STEEP 4.9
2024-04-14 01:40 am 5.2 3.3 8.3ENE 4.3 6.7 ENE AVERAGE 5.1
2024-04-14 01:10 am 5.2 2.6 11.4 NE 4.6 7.1 E STEEP 5.1
2024-04-14 12:40 am 5.2 3.0 7.7 E 4.3 6.2 E AVERAGE 5.0
2024-04-14 12:10 am 5.2 3.3 7.7 E 4.3 6.7 E AVERAGE 5.2
2024-04-13 11:40 pm 5.2 3.0 8.3 E 4.3 4.2 ENE AVERAGE 5.0
2024-04-13 11:10 pm 5.6 3.0 7.7 E 4.6 5.0 ENE STEEP 5.1
2024-04-13 10:40 pm 5.6 3.0 7.7 E 4.9 5.9 E STEEP 5.2
2024-04-13 10:10 pm 5.9 3.9 7.7 E 4.3 4.5 ENE STEEP 5.3
2024-04-13 09:40 pm 5.6 3.0 7.7ENE 4.6 5.6 E STEEP 5.0
2024-04-13 09:10 pm 5.9 3.3 8.3ENE 4.9 7.1 ENE AVERAGE 5.3
2024-04-13 08:40 pm 6.6 2.6 13.8NNE 5.9 7.7 E STEEP 5.3
2024-04-13 08:10 pm 5.9 3.0 8.3ENE 4.9 5.6 E AVERAGE 5.2
2024-04-13 07:40 pm 6.6 3.3 8.3ENE 5.6 7.1 E AVERAGE 5.4
2024-04-13 07:10 pm 6.2 2.6 11.4NNE 5.6 7.7 ENE STEEP 5.3
2024-04-13 06:40 pm 6.6 3.0 13.8ENE 5.9 7.7 ENE STEEP 5.5
2024-04-13 06:10 pm 6.6 2.6 12.1 SE 5.9 7.7 ENE STEEP 5.3
2024-04-13 05:40 pm 6.9 3.0 13.8SSE 6.2 7.7 ENE STEEP 5.5
2024-04-13 05:10 pm 6.6 3.0 8.3 E 5.9 7.1 E STEEP 5.5
2024-04-13 04:40 pm 6.6 3.3 8.3 E 5.6 6.7 E STEEP 5.5
2024-04-13 04:10 pm 6.6 2.3 12.9 NE 6.2 7.7 ENE STEEP 5.4
2024-04-13 03:40 pm 6.9 3.3 8.3ENE 6.2 6.7 E AVERAGE 5.5
2024-04-13 03:10 pm 6.9 3.9 8.3 E 5.6 7.1 ENE STEEP 5.5
2024-04-13 02:40 pm 6.6 3.6 8.3ENE 5.6 7.1 ENE AVERAGE 5.4
2024-04-13 02:10 pm 6.9 0.0-- 6.9 7.7 ENE STEEP 5.4
2024-04-13 01:40 pm 6.9 4.3 9.1ENE 5.6 4.2 E AVERAGE 5.5
2024-04-13 01:10 pm 6.6 2.6 12.9 E 5.9 7.7 ENE STEEP 5.3
2024-04-13 12:40 pm 6.2 2.6 8.3ENE 5.6 6.2 ENE AVERAGE 5.0
2024-04-13 12:10 pm 6.6 3.0 8.3ENE 5.6 7.1 ENE AVERAGE 5.1
2024-04-13 11:40 am 5.9 2.0 11.4ENE 5.6 6.2 EVERY_STEEP 5.0
2024-04-13 11:10 am 6.6 2.0 10.8ESE 6.2 6.2 EVERY_STEEP 5.2
2024-04-13 10:40 am 6.2 1.6 10.8NNE 5.9 6.2 EVERY_STEEP 5.1
2024-04-13 10:10 am 5.6 2.0 8.3ENE 5.2 6.2 ENEVERY_STEEP 4.9
2024-04-13 09:40 am 5.6 2.6 7.7ENE 4.9 5.3 EVERY_STEEP 4.8
2024-04-13 09:10 am 5.6 1.3 14.8ENE 5.6 5.0 EVERY_STEEP 4.9
2024-04-13 08:40 am 5.2 2.3 8.3ENE 4.6 6.2 ENE STEEP 4.8
2024-04-13 08:10 am 5.2 2.3 8.3ENE 4.9 5.6 EVERY_STEEP 4.9
2024-04-13 07:40 am 5.2 2.3 8.3 E 4.9 5.9 EVERY_STEEP 5.0
2024-04-13 07:10 am 5.2 2.0 11.4 NE 4.9 5.9 EVERY_STEEP 4.9
2024-04-13 06:40 am 5.2 1.6 10.8 N 4.9 5.3 ENEVERY_STEEP 4.9
2024-04-13 06:10 am 5.6 1.6 10.8NNE 5.2 6.2 EVERY_STEEP 4.9
2024-04-13 05:40 am 5.2 2.3 7.7ENE 4.9 5.9 EVERY_STEEP 4.8
2024-04-13 05:10 am 5.2 2.0 8.3ENE 4.9 5.9 EVERY_STEEP 4.8
2024-04-13 04:40 am 5.2 2.6 8.3ENE 4.6 6.7 ENE STEEP 4.9
2024-04-13 04:10 am 4.9 2.3 8.3 NE 4.6 6.7 ENE STEEP 4.9
2024-04-13 03:40 am 5.2 3.0 7.7ENE 4.3 6.2 ENE STEEP 5.1
2024-04-13 03:10 am 5.6 2.6 9.1ENE 4.9 6.2 ENEVERY_STEEP 4.9

Plot of wave energy versus frequency (and period)